Theta_e
329 331 331 331 331 331 331 332 337 336 334 337 337 337 338 338 337 337 339 342 343 343 343 343 340 335 337 336 336 336 336 334 335 336 335 335 335 334 334 332 329 328 327 326
330 330 330 331 330 330 331 333 336 335 335 336 335 335 337 338 339 339 341 341 341 344 343 339 339 338 335 335 335 333 331 323 328 333 333 334 332 333 331 329 327 324 323 323
330 330 328 331 332 332 331 332 335 335 334 334 334 335 336 337 339 340 341 341 342 343 342 341 336 334 334 332 329 323 320 318 316 322 326 325 326 326 325 324 324 323 321 321
331 328 330 331 331 331 332 332 333 334 335 336 334 337 335 337 339 337 339 340 341 341 338 334 333 331 330 328 327 326 322 317 322 314 321 322 320 320 321 320 319 318 318 316
331 331 331 332 332 332 334 332 333 333 335 336 335 335 336 335 338 338 337 337 336 333 332 332 330 329 328 326 325 323 323 322 318 318 317 319 319 318 317 316 315 314 314 314
332 331 333 332 332 332 333 334 334 335 335 336 336 335 336 336 337 337 335 334 333 332 331 330 328 326 324 323 322 321 322 322 321 320 317 314 312 314 313 313 313 313 313 313
333 333 333 333 333 332 333 335 336 336 336 335 335 334 339 336 335 336 334 334 332 331 330 327 325 323 322 323 322 321 321 321 320 319 317 315 313 314 313 313 313 313 313 313
331 333 334 333 335 334 333 334 334 334 333 334 334 335 339 334 334 334 332 333 332 330 328 326 324 322 322 323 323 322 321 320 319 318 316 314 313 313 312 313 313 313 313 313
331 334 333 333 334 334 335 335 335 335 334 334 334 337 334 334 334 333 332 331 331 329 327 325 323 323 323 323 323 322 321 319 318 317 314 313 313 313 313 314 313 313 313 313
337 334 334 334 333 334 335 333 334 335 334 332 333 333 336 336 336 333 332 332 330 329 326 324 323 324 324 323 322 322 320 319 317 315 313 313 313 313 313 312 313 314 313 313
335 335 336 334 335 335 335 335 334 335 334 332 332 335 334 335 335 334 332 331 331 329 326 323 322 323 323 323 321 322 319 318 316 313 313 313 313 313 313 313 313 313 313 313
339 335 333 336 334 334 334 334 334 334 336 334 333 336 333 335 334 333 332 331 330 327 325 323 322 323 323 322 321 320 319 317 314 312 313 313 313 313 313 313 313 313 312 313
339 339 335 337 336 335 335 335 334 336 336 335 330 337 334 334 333 332 332 329 328 327 325 324 322 323 322 321 320 319 317 315 313 312 313 313 314 314 313 314 313 312 313 312
337 340 334 332 331 330 333 334 334 335 335 333 333 333 337 335 334 332 332 329 328 326 325 325 322 322 321 320 319 318 317 314 312 312 313 313 313 314 314 314 313 314 311 312
340 337 334 332 333 333 333 333 333 333 333 334 334 334 335 335 334 333 331 329 328 326 324 324 323 322 320 319 318 318 316 314 312 312 313 313 313 314 314 314 314 314 314 311
340 339 336 335 334 333 333 334 332 333 334 334 334 335 333 333 332 331 330 329 328 325 324 324 323 322 320 319 318 318 316 314 313 312 312 312 312 314 314 314 314 314 314 312
340 340 338 334 334 333 332 332 333 334 334 335 336 335 334 333 332 331 329 328 327 324 324 323 323 322 320 319 318 318 316 313 313 312 312 312 312 312 314 314 314 313 314 310
341 339 335 334 334 332 336 335 334 335 334 334 334 334 334 333 332 330 329 329 326 324 324 322 323 322 320 319 318 318 315 314 313 313 312 312 312 312 313 314 314 313 314 311
336 335 337 334 333 333 333 336 335 335 336 334 334 334 333 332 331 331 329 328 325 325 323 322 322 321 321 319 318 318 315 315 313 312 312 312 311 312 312 313 313 313 314 313
338 339 334 334 332 332 337 335 334 334 337 332 332 333 333 332 331 332 328 326 325 325 322 323 322 321 321 319 318 317 315 315 313 312 312 312 310 311 310 311 312 312 313 313
336 336 333 333 332 331 335 334 333 336 332 329 327 329 332 331 331 328 326 325 325 323 323 323 322 321 320 319 318 318 315 314 312 312 312 312 311 311 312 312 311 312 313 313
333 333 333 335 334 333 333 334 335 332 327 328 327 327 329 332 330 328 324 325 324 323 323 322 322 322 321 319 318 318 315 314 312 312 312 312 312 313 313 314 313 312 313 314
335 334 336 334 335 336 333 336 335 329 330 330 328 328 326 331 331 327 324 325 323 321 322 321 321 322 321 320 319 318 316 314 312 313 313 313 314 314 314 314 314 313 313 314
336 334 335 338 335 333 334 333 334 330 329 330 330 330 328 329 329 326 326 325 322 321 321 321 321 321 321 320 319 317 316 313 313 313 312 314 314 313 314 314 314 314 313 313
333 334 336 336 334 332 332 333 332 331 331 330 330 329 326 325 327 325 326 325 320 320 320 320 320 321 321 321 319 318 316 314 314 313 313 313 314 314 315 315 314 314 314 311
330 334 335 333 333 332 332 332 333 332 331 330 330 329 326 324 324 326 326 325 320 320 320 321 321 321 322 321 320 318 317 315 315 315 314 313 313 313 314 314 315 315 313 311
Wind_Speed
6 8 8 7 7 6 3 4 11 10 4 13 15 16 12 13 14 14 15 15 13 13 12 12 11 10 11 13 14 14 14 16 16 15 14 14 13 11 9 10 12 12 13 13
8 8 5 7 7 6 5 7 9 7 10 12 14 16 14 16 16 15 15 16 14 14 12 14 12 12 14 16 17 20 20 22 20 16 15 14 13 9 10 12 12 12 12 12
5 8 5 9 8 7 4 7 9 11 8 12 15 14 12 15 16 17 15 14 14 13 13 12 15 16 16 19 21 23 24 25 24 21 17 15 13 13 15 15 15 15 13 13
6 3 10 10 7 9 6 3 5 14 16 9 6 6 9 11 13 14 13 14 13 12 13 13 15 16 17 18 19 21 22 23 21 24 19 19 17 17 16 16 16 15 15 14
4 12 7 7 6 6 7 2 10 14 7 8 6 3 9 7 9 10 12 13 12 14 14 15 15 15 16 18 18 18 17 19 21 24 24 21 21 18 17 18 18 17 16 15
10 6 6 6 5 4 4 7 8 8 7 9 4 6 7 6 5 8 9 11 11 12 12 12 13 14 15 16 15 16 16 18 20 21 23 24 23 22 19 19 17 16 16 15
12 8 6 4 5 7 5 6 6 5 6 5 4 6 9 8 6 5 7 8 8 8 8 10 13 15 15 15 15 16 17 18 20 21 22 23 21 18 16 17 16 17 16 17
9 11 3 3 5 6 3 5 6 9 6 5 4 0 8 7 7 7 7 6 6 6 8 11 13 14 14 14 13 14 16 17 18 20 21 20 18 14 14 15 15 15 15 16
5 6 6 7 7 3 3 3 4 6 4 7 5 6 7 9 9 7 6 5 6 5 7 11 13 13 13 13 13 14 15 16 18 20 20 17 15 15 14 14 14 14 15 15
3 5 2 4 3 7 5 3 5 4 4 5 5 5 7 12 12 8 6 5 5 3 6 11 13 12 13 13 13 13 15 16 18 19 18 15 14 14 15 15 15 15 16 15
7 3 7 5 2 6 2 3 1 4 4 6 4 7 6 7 10 8 5 4 4 1 8 12 13 12 13 13 13 12 14 16 18 18 16 15 14 14 14 15 15 15 15 15
2 1 2 6 4 3 3 4 3 6 3 2 5 4 5 7 11 6 6 6 4 2 8 11 12 13 13 13 12 12 14 16 16 16 14 14 13 15 16 16 16 16 15 14
7 2 4 8 7 4 3 2 1 1 3 2 8 6 7 10 11 7 7 7 5 1 7 10 12 12 12 12 11 12 14 15 16 15 14 14 14 15 16 16 16 17 15 15
3 2 3 6 5 2 3 4 2 4 7 7 2 3 11 10 9 9 8 7 3 3 6 9 11 11 12 11 11 11 13 13 15 13 13 14 14 14 14 15 15 17 18 17
1 3 2 3 3 2 1 2 3 7 6 6 8 4 7 9 10 10 9 7 3 4 7 9 9 9 11 11 11 11 12 12 15 13 13 14 14 14 14 15 15 16 18 17
1 4 6 4 3 4 4 1 1 1 1 2 4 3 3 8 12 11 10 6 1 4 6 7 7 8 10 10 11 11 11 11 14 14 13 13 13 13 14 15 15 15 17 17
4 6 5 3 3 5 8 2 0 2 0 4 6 7 5 9 11 10 8 4 2 4 5 6 6 6 8 10 11 10 10 10 13 13 12 12 13 12 13 14 16 15 17 15
9 6 3 2 4 8 7 3 2 3 0 1 2 2 4 9 10 8 4 4 2 3 4 5 4 5 7 9 10 10 9 10 12 12 11 12 13 11 12 13 15 15 15 16
7 4 3 4 6 3 6 3 4 4 3 1 1 4 7 10 10 7 5 4 3 2 3 2 2 3 5 8 10 10 9 11 12 11 10 11 12 11 12 12 13 13 13 14
5 2 5 3 5 3 8 5 3 2 4 4 1 5 8 10 9 13 7 4 4 3 2 2 2 2 4 7 8 10 9 10 11 10 9 10 10 11 12 12 12 12 11 11
5 3 6 5 5 2 6 9 5 6 4 6 2 4 7 6 10 13 8 6 4 1 1 2 2 1 3 5 7 9 8 9 9 8 8 9 8 10 11 12 11 11 10 9
6 5 4 2 5 7 14 10 4 9 10 9 5 4 6 8 11 10 7 6 4 2 1 1 1 1 1 3 6 8 7 7 8 7 7 7 7 8 9 10 10 10 9 10
5 3 3 4 4 3 19 2 7 11 10 9 8 7 5 10 11 9 6 6 3 3 2 2 1 2 1 1 4 6 5 5 7 6 6 6 7 7 8 9 9 9 8 7
4 3 4 3 7 6 15 7 7 12 10 10 9 11 6 10 11 8 7 7 3 3 3 2 2 3 3 3 3 4 4 4 5 5 5 5 6 8 8 7 7 7 7 5
5 6 4 6 5 4 9 17 10 14 12 13 12 11 7 9 11 9 9 7 4 5 4 4 2 3 4 5 4 4 4 3 3 4 5 5 5 7 8 8 7 6 7 6
7 2 5 4 4 6 3 10 17 16 17 15 15 14 10 9 10 9 9 7 5 6 5 4 3 3 5 6 5 5 4 4 4 4 5 5 4 7 7 8 8 11 11 8
Wind_Direction
183 249 44 62 50 78 76 88 102 113 99 87 93 85 75 61 53 61 72 82 80 81 72 69 70 52 29 27 27 22 13 7 6 0 354 345 331 334 339 347 338 336 334 326
197 91 81 122 132 121 99 115 109 100 109 115 102 84 73 60 59 59 72 74 75 77 68 57 51 44 32 34 37 33 27 15 12 10 4 359 351 357 351 348 354 354 353 348
355 68 138 158 167 143 60 351 173 137 149 123 125 98 87 83 78 74 70 76 73 59 50 43 40 35 38 39 29 16 11 4 3 15 6 7 357 345 345 345 338 343 349 345
57 124 160 186 91 332 79 10 178 153 179 168 238 131 93 101 90 71 68 60 55 52 50 47 49 45 36 31 22 17 11 10 12 12 14 11 7 354 348 342 333 344 340 345
89 141 169 93 42 356 36 202 180 186 233 213 171 266 121 136 99 74 64 62 59 57 52 56 49 36 29 23 18 15 18 23 18 11 7 7 359 353 347 345 350 352 353 357
110 111 38 63 72 60 128 122 153 206 214 234 107 283 159 131 104 100 75 66 59 62 58 45 34 21 16 12 16 13 18 20 15 8 1 358 353 351 353 359 1 2 360 0
137 102 101 36 147 147 232 223 215 199 228 35 113 253 68 121 126 92 73 69 67 61 47 28 17 15 10 12 12 11 13 11 6 3 1 359 357 0 5 8 1 3 360 356
166 157 15 16 9 353 25 324 337 317 335 79 150 191 117 122 134 122 86 83 82 60 33 18 13 13 9 10 7 8 5 1 1 360 0 358 4 7 7 3 5 358 356 349
180 105 113 57 42 309 75 313 15 292 182 263 83 117 147 156 154 149 106 101 92 58 22 13 9 9 8 7 4 3 1 357 359 360 357 2 8 10 4 0 4 356 351 355
106 131 176 113 233 75 353 72 267 211 296 309 124 258 82 178 177 157 148 129 108 52 13 10 7 5 6 6 360 356 358 356 357 358 1 4 4 4 3 5 0 357 355 352
155 273 139 199 6 351 178 185 355 301 322 323 301 86 68 165 166 165 146 129 141 42 11 11 8 8 5 360 356 354 356 357 355 0 6 7 11 9 6 9 4 359 356 353
92 30 156 61 78 10 8 24 334 323 87 68 286 78 109 127 130 142 137 142 138 44 15 12 9 8 6 2 1 358 359 358 359 3 8 6 6 11 11 14 9 2 2 3
175 136 185 174 163 164 260 92 61 64 272 137 311 88 140 143 146 150 147 146 155 36 16 11 9 8 7 7 7 4 3 2 2 7 13 11 13 13 15 12 11 13 10 8
104 117 308 352 38 49 174 197 227 300 291 348 351 11 157 171 173 157 156 169 147 26 17 13 11 11 10 12 9 9 4 8 7 15 16 13 13 13 13 13 10 11 11 14
218 143 168 105 127 195 216 278 265 289 343 294 15 328 31 165 170 156 162 170 161 26 15 14 13 16 13 15 10 9 5 10 13 19 16 14 12 12 9 9 10 8 10 13
39 139 168 153 164 221 228 182 342 15 18 268 324 114 33 124 142 147 165 170 121 28 18 13 13 18 18 16 13 4 3 12 16 16 14 11 13 12 10 11 8 12 13 14
148 147 204 158 197 225 239 106 270 136 242 333 325 45 136 150 157 159 151 152 70 37 19 11 18 23 22 16 8 4 3 10 12 14 10 8 7 11 11 13 13 17 15 22
142 146 198 104 208 250 77 80 235 280 309 193 232 42 159 158 153 153 137 122 71 48 20 11 22 24 22 15 6 6 7 10 10 9 8 8 3 10 10 12 11 11 17 24
143 164 131 241 231 353 177 179 206 245 115 17 356 146 141 146 154 152 127 118 95 92 32 39 52 46 33 13 9 10 14 13 8 8 8 8 9 15 15 12 11 8 17 19
102 113 255 183 275 265 73 131 168 264 215 118 255 169 154 165 223 115 134 140 127 102 54 78 83 67 35 10 14 12 17 11 9 14 13 12 15 21 20 14 13 11 14 18
167 207 240 219 267 281 117 139 151 239 76 128 145 200 179 219 67 118 125 131 144 116 112 114 110 77 38 21 20 12 18 10 10 13 10 10 12 15 14 15 10 14 8 22
207 212 206 237 258 250 146 142 229 111 134 155 155 160 183 147 136 135 129 149 146 129 136 126 159 202 15 17 16 9 11 13 8 11 6 3 3 8 2 7 4 4 24 8
221 283 313 251 11 111 170 67 167 161 158 169 163 153 166 174 168 157 157 161 160 159 166 186 210 220 243 319 1 4 2 12 10 7 4 6 8 2 0 2 3 7 1 19
194 189 240 264 181 182 193 185 174 177 170 167 173 164 162 187 183 176 181 175 169 175 171 183 194 226 248 259 310 341 351 359 11 9 360 358 4 8 359 12 353 358 350 348
28 172 203 247 232 206 210 208 193 182 172 167 168 169 162 180 189 189 192 189 190 185 188 184 200 232 249 253 276 304 323 328 326 342 347 345 351 354 0 351 344 345 324 333
190 178 232 278 68 260 49 208 200 190 182 178 173 171 166 167 184 197 195 198 200 199 195 196 215 238 246 251 264 280 295 297 297 308 327 324 337 335 336 340 335 329 344 334